AZERSPACE 2 (IS-38)

Last updated on Nov. 14, 2019, 4:21 a.m. UTC

1 43632U 18074A   19316.84181529  .00000150  00000-0  00000-0 0  9992
2 43632   0.0147 289.1539 0001735 320.0734 150.6215  1.00271459  4355
UTC
Height (km)
Latitude
Longitude
Inclination
Orbital Period
UTC large
Height (km)
Speed (km/s)
/
Latitude / Longitude
Inclination (degrees)
Orbital Period (minutes)
Azimuth
Elevation
Range (km)
Doppler Factor
iOS Compass Heading
iOS Angle

Next 30 passes for location: Hong Kong

Rise time Rise Azimuth (degrees) Set time Set Azimuth (degrees) Duration Max altitude (degrees)

No matching passes for this satellites